Regional Weather Roundup
Issued by NWS Albany, NY

Home | Current Version | Previous Version | Graphics & Text | Print | Product List | Glossary Off
Versions: 1 2 3 4 5 6 7 8 9 10 11 12 13 14 15 16 17 18 19 20 21 22 23 24 25 26 27 28 29 30 31 32 33 34 35 36 37 38 39 40 41 42 43 44 45 46 47 48 49 50

302
ASUS41 KALY 180210
RWRALY

NEW YORK STATE HOURLY WEATHER ROUNDUP
NATIONAL WEATHER SERVICE ALBANY NY
900 PM EST TUE JAN 17 2017

NOTE: "FAIR" INDICATES FEW OR NO CLOUDS BELOW 12,000 FEET WITH NO
SIGNIFICANT WEATHER AND/OR NO OBSTRUCTIONS TO VISIBILITY.

NYZ032-033-038>043-046>054-057>066-NYZ062>081-082-084-180300-
EAST


CITY           SKY/WX    TMP DP  RH WIND       PRES   REMARKS
ALBANY         LGT RAIN  34  31  88 S7        30.04F FOG     WCI  28
GLENS FALLS    FRZ RAIN  32  29  88 CALM      30.05F FOG
POUGHKEEPSIE   CLOUDY    34  31  88 N5        30.05F WCI  30
MONTGOMERY     LGT RAIN  34  32  92 N8        30.02F FOG     WCI  27
WHITE PLAINS   RAIN      36  34  92 E8        30.02S FOG     WCI  30
ISLIP          LGT RAIN  39  39 100 E6        30.03F FOG     WCI  35
NEW YORK CITY  LGT RAIN  40  37  89 NE12      30.02F FOG     WCI  33
CENTRAL PARK   LGT RAIN  39  38  96 NE6       30.05F FOG     WCI  35
$$

NYZ005>009-017-018-044>046-055-056-180300-
CENTRAL


CITY           SKY/WX    TMP DP  RH WIND       PRES   REMARKS
FULTON         CLOUDY    36  33  89 SE10G17   29.84F WCI  28
SYRACUSE       CLOUDY    34  32  92 E9        29.85F WCI  27
ROME           CLOUDY    34  32  92 SE12      29.94F WCI  25
ELMIRA         CLOUDY    39  35  86 SE5       29.87S
BINGHAMTON     CLOUDY    33  33 100 SE13      29.87S FOG     WCI  24
MONTICELLO     CLOUDY    30  30 100 CALM      29.99S
$$

NYZ026>034-041>043-087-180300-
NORTH


CITY           SKY/WX    TMP DP  RH WIND       PRES   REMARKS
WATERTOWN      LGT RAIN  35  35 100 NE3       29.85F FOG
FORT DRUM      NOT AVBL
OGDENSBURG     LGT RAIN  31  30  94 E8        29.91F WCI  24
MASSENA        FLURRIES  30  24  78 NE17G23   29.96F WCI  18
SARANAC LAKE   MIX PCPN  33  29  85 SE7       29.87F WCI  27
PLATTSBURGH    LGT SNOW  33  31  92 SE12      30.02S FOG     WCI  24
$$

NYZ001>004-010>016-019>021-085-180300-
WEST


CITY           SKY/WX    TMP DP  RH WIND       PRES   REMARKS
NIAGARA FALLS  FOG       40  37  89 SW13      29.79S VSB 1/2 WCI  32
BUFFALO        DRZL/FOG  42  40  92 SW20      29.80R VSB 3/4
DUNKIRK        CLOUDY    43  42  97 SW14G26   29.83S FOG
JAMESTOWN      CLOUDY    43  39  87 W10G16    29.82S
WELLSVILLE     LGT RAIN  42  40  92 SW5       29.82F FOG
ROCHESTER      CLOUDY    45  43  93 SW7       29.79S
PENN YAN       CLOUDY    40  35  83 SW14      29.83S WCI  32
$$

             KEY
       WCI = WIND CHILL INDEX
       VSB = VISIBILITY
       HX  = HEAT INDEX
$$




USA.gov is the U.S. government's official web portal to all federal, state and local government web resources and services.